TimeEDT,TemperatureF,Dew PointF,Humidity,Sea Level PressureIn,VisibilityMPH,Wind Direction,Wind SpeedMPH,Gust SpeedMPH,PrecipitationIn,Events,Conditions,WindDirDegrees,DateUTC
12:18 AM,64.4,62.6,94,29.81,10.0,SSW,8.1,-,N/A,,Mostly Cloudy,210,2013-05-23 04:18:00
12:58 AM,64.9,62.6,92,29.81,10.0,SW,8.1,-,N/A,,Mostly Cloudy,220,2013-05-23 04:58:00
1:09 AM,66.2,62.6,88,29.82,10.0,WSW,16.1,26.5,N/A,Rain,Light Rain,240,2013-05-23 05:09:00
1:13 AM,66.2,62.6,88,29.82,10.0,West,17.3,23.0,N/A,Rain,Light Rain,270,2013-05-23 05:13:00
1:28 AM,62.6,55.4,77,29.82,10.0,West,11.5,-,N/A,,Overcast,280,2013-05-23 05:28:00
1:52 AM,62.6,55.4,77,29.82,10.0,SW,3.5,-,N/A,Rain,Light Rain,230,2013-05-23 05:52:00
1:58 AM,62.4,55.9,79,29.82,10.0,South,3.5,-,0.00,Rain,Light Rain,180,2013-05-23 05:58:00
2:05 AM,60.8,57.2,88,29.82,10.0,South,4.6,-,N/A,,Overcast,170,2013-05-23 06:05:00
2:58 AM,60.1,55.9,86,29.81,10.0,South,5.8,-,0.00,,Partly Cloudy,170,2013-05-23 06:58:00
3:58 AM,58.1,55.6,91,29.81,10.0,South,4.6,-,N/A,,Mostly Cloudy,180,2013-05-23 07:58:00
4:14 AM,59.0,57.2,94,29.81,10.0,SSW,3.5,-,N/A,Rain,Light Rain,200,2013-05-23 08:14:00
4:48 AM,60.8,59.0,94,29.81,10.0,South,3.5,-,N/A,,Overcast,170,2013-05-23 08:48:00
4:58 AM,60.4,58.6,94,29.81,10.0,South,4.6,-,0.01,,Overcast,170,2013-05-23 08:58:00
5:26 AM,60.8,60.8,100,29.81,10.0,SW,2.3,-,N/A,Rain,Light Rain,230,2013-05-23 09:26:00
5:36 AM,60.8,60.8,100,29.81,10.0,South,3.5,-,N/A,,Overcast,190,2013-05-23 09:36:00
5:46 AM,60.8,60.8,100,29.81,9.0,South,3.5,-,N/A,,Overcast,190,2013-05-23 09:46:00
5:58 AM,61.7,60.8,97,29.81,7.0,South,5.8,-,0.00,,Overcast,190,2013-05-23 09:58:00
6:08 AM,62.6,60.8,94,29.82,6.0,SSW,4.6,-,N/A,,Mostly Cloudy,210,2013-05-23 10:08:00
6:28 AM,62.6,62.6,100,29.83,5.0,SSW,6.9,-,N/A,,Mostly Cloudy,210,2013-05-23 10:28:00
6:58 AM,63.0,62.4,98,29.83,8.0,WSW,8.1,-,N/A,,Mostly Cloudy,240,2013-05-23 10:58:00
7:58 AM,63.0,60.1,90,29.85,10.0,SW,9.2,-,N/A,,Mostly Cloudy,230,2013-05-23 11:58:00
8:58 AM,64.2,58.5,82,29.86,10.0,WSW,10.4,-,N/A,,Mostly Cloudy,240,2013-05-23 12:58:00
9:53 AM,66.2,57.2,73,29.86,10.0,WSW,8.1,-,N/A,,Mostly Cloudy,240,2013-05-23 13:53:00
9:58 AM,66.7,57.6,72,29.87,10.0,SW,12.7,-,N/A,,Mostly Cloudy,220,2013-05-23 13:58:00
10:10 AM,68.0,57.2,68,29.87,10.0,SW,10.4,-,N/A,,Mostly Cloudy,220,2013-05-23 14:10:00
10:17 AM,68.0,57.2,68,29.86,10.0,SW,12.7,-,N/A,,Mostly Cloudy,230,2013-05-23 14:17:00
10:28 AM,68.0,55.4,64,29.86,10.0,SW,12.7,-,N/A,,Scattered Clouds,230,2013-05-23 14:28:00
10:58 AM,67.6,55.0,64,29.86,10.0,WSW,13.8,-,N/A,,Mostly Cloudy,250,2013-05-23 14:58:00
11:58 AM,68.0,54.1,61,29.86,10.0,SW,13.8,-,N/A,,Mostly Cloudy,220,2013-05-23 15:58:00
12:58 PM,67.5,53.8,61,29.87,10.0,WSW,10.4,-,N/A,,Overcast,250,2013-05-23 16:58:00
1:58 PM,67.6,52.9,59,29.87,10.0,WSW,13.8,-,N/A,,Overcast,240,2013-05-23 17:58:00
2:39 PM,68.0,53.6,60,29.88,10.0,West,13.8,25.3,N/A,Rain,Light Rain Showers,280,2013-05-23 18:39:00
2:58 PM,64.2,57.9,80,29.88,10.0,West,10.4,-,0.00,,Mostly Cloudy,260,2013-05-23 18:58:00
3:45 PM,68.0,55.4,64,29.88,10.0,WSW,15.0,-,N/A,Rain,Light Rain,250,2013-05-23 19:45:00
3:58 PM,68.2,54.3,61,29.88,10.0,WSW,13.8,-,N/A,,Mostly Cloudy,240,2013-05-23 19:58:00
4:15 PM,68.0,53.6,60,29.88,5.0,West,19.6,29.9,N/A,Rain,Rain Showers,280,2013-05-23 20:15:00
4:50 PM,-9999,-9999,N/A,29.90,10.0,West,8.1,-,N/A,,Overcast,260,2013-05-23 20:50:00
4:58 PM,62.8,58.6,86,29.91,10.0,WSW,8.1,-,0.13,,Mostly Cloudy,240,2013-05-23 20:58:00
5:58 PM,64.4,57.2,77,29.90,10.0,WSW,10.4,-,N/A,,Mostly Cloudy,240,2013-05-23 21:58:00
6:21 PM,64.4,53.6,68,29.91,10.0,WNW,16.1,23.0,N/A,,Overcast,300,2013-05-23 22:21:00
6:28 PM,64.4,53.6,68,29.91,10.0,NW,18.4,23.0,N/A,,Overcast,310,2013-05-23 22:28:00
6:31 PM,64.4,53.6,68,29.91,10.0,NW,20.7,29.9,N/A,,Mostly Cloudy,320,2013-05-23 22:31:00
6:58 PM,59.7,50.5,72,29.95,10.0,NW,17.3,28.8,N/A,,Overcast,320,2013-05-23 22:58:00
7:18 PM,59.0,50.0,72,29.95,10.0,NW,18.4,20.7,N/A,,Overcast,320,2013-05-23 23:18:00
7:28 PM,59.0,50.0,72,29.97,10.0,NW,11.5,-,N/A,,Overcast,320,2013-05-23 23:28:00
7:58 PM,56.8,50.2,78,29.99,10.0,NNW,11.5,24.2,N/A,,Overcast,340,2013-05-23 23:58:00
8:22 PM,55.4,48.2,77,30.00,10.0,NNW,16.1,25.3,N/A,,Overcast,340,2013-05-24 00:22:00
8:58 PM,53.4,45.9,76,30.03,10.0,NNW,12.7,20.7,N/A,,Overcast,340,2013-05-24 00:58:00
9:58 PM,51.3,45.1,80,30.06,10.0,North,16.1,20.7,N/A,,Overcast,350,2013-05-24 01:58:00
10:58 PM,51.1,44.2,77,30.09,10.0,NNW,15.0,21.9,N/A,,Overcast,330,2013-05-24 02:58:00
11:58 PM,48.9,41.4,75,30.12,10.0,North,13.8,23.0,N/A,,Overcast,350,2013-05-24 03:58:00